STARLINK-32504, 62024

Orbit data source: Space-Track

STARLINK-32504, 62024 is a payload satellite owned by SpaceX/Seattle (US) in LEO that was launched on Mon, 18 Nov 2024 UTC via an FALCON 9 launch vehicle from the Air Force Western Test Range (AFWTR). Payload-class satellites include a variety of spacecraft equipped with specific instruments for various scientific and technological missions. These include communications satellites like Starlink; space stations such as the ISS; scientific satellites like the Hubble; Earth observation satellites from companies like Planet Labs, Umbra, and HawkEye 360; GPS; miniature CubeSats for education and research; and military/defense satellites.

Loading next visibility...
Identifier
62024, 2024-213S
Orbit
LEO
Country
Flag of USUS
Related business
Manufacturer
SpaceX/Seattle
Mission
Operational Commercial Communications
Bus & Motor
STARLINK V2M, Unknown motor
Mass
730 kg wet, ~700 kg dry
Launch date (UTC)
2024-11-18 (1 year ago)
Launch vehicle
FALCON 9
Launch site
Air Force Western Test Range (AFWTR)
Object type
Payload
Rocket body
Debris
Shape & HBR
Box + 2 Pan, 17.7 m
Radar Cross Section
33.884 m², Large (>1 m²)

Expand to show TLE details & history
Last TLE update: 4 hours ago

TLE from 4 hours ago
0 STARLINK-32504
1 62024U 24213S   26123.60178714  .00017748  00000-0  60982-3 0  9999
2 62024  53.1630 272.9559 0001115  88.2649 271.8480 15.30205121 81568
Epoch: 2026-05-03T14:26Z
TLE epoch observation values (Epoch: 2026-05-03T14:26:34.408Z)
Latitude
-0°
Longitude
-165.19046°
Altitude
476.075 km
Speed
7.629 km/s
True Right ascension
18h 11m 49s
True Declination
0° 00' 00"
Sunlit
Object was in full shadow at epoch
Visualization orbit readout
Latitude
Unknown
Longitude
Unknown
Altitude
Unknown
Speed
Unknown
Apparent Right ascension
Unknown
Apparent Declination
Unknown
Sunlit
N/A
Visualization observer readout
Local Sidereal Time
02:36:28
Azimuth
Unknown
Elevation
Unknown
Doppler factor
Unknown
Orbital elements
Apogee altitude
476.22 km
Perigee altitude
474.692 km
Semi-major axis
6,853.593 km
Eccentricity
0.00011
Inclination
53.163°
RAAN
272.9559°
Arg. of periapsis
88.2649°
True anomaly
271.83523°
Mean anomaly
271.848°
Eccentric anomaly
271.84161°
Mean motion
3.8253 °/min
Orbital period
94.11 mins
BSTAR
0.00060982
Loading maneuver chart data...
Computing Atmospheric mass density...
Loading historical data...
Loading historical data...
Loading historical data...
Loading historical data...
Loading historical data...
Loading historical data...
Loading historical data...

Documentation

Showing up to 5 results
|